CW6761 Weather Reports


time (UTC)temp
F
wind
direction
speed
knots
gust
knots
rain 1hr
in
rain 24hr
in
rain mn
in
humidity
%
barometer
mb
20260507014624 54 329 3.5 0.0 0.00 0.00 0.00 56 1010.8
20260507014128 54 335 3.5 0.0 0.00 0.00 0.00 56 1010.9
20260507013117 54 334 2.6 0.0 0.00 0.00 0.00 55 1011.0
20260507012620 54 315 3.5 0.0 0.00 0.00 0.00 56 1011.0
20260507012124 53 337 3.5 0.0 0.00 0.00 0.00 56 1011.0
20260507011627 54 329 2.6 0.0 0.00 0.00 0.00 56 1011.1
20260507011133 54 331 2.6 0.0 0.00 0.00 0.00 56 1011.1
20260507010617 54 341 3.5 0.0 0.00 0.00 0.00 55 1011.2
20260507010122 53 314 3.5 0.0 0.00 0.00 0.00 56 1011.2
20260507005621 53 325 2.6 0.0 0.00 0.00 0.00 57 1011.2
20260507005124 53 333 2.6 0.0 0.00 0.00 0.00 57 1011.2
20260507004611 53 331 3.5 0.0 0.00 0.00 0.00 57 1011.2
20260507004114 53 332 3.5 0.0 0.00 0.00 0.00 57 1011.3
20260507003617 53 321 3.5 0.0 0.00 0.00 0.00 57 1011.3
20260507003120 53 319 2.6 0.0 0.00 0.00 0.00 58 1011.3
20260507002621 53 311 2.6 0.0 0.00 0.00 0.00 58 1011.3
20260507002124 53 327 3.5 0.0 0.00 0.00 0.00 57 1011.4
20260507001110 53 324 2.6 0.0 0.00 0.00 0.00 57 1011.4
20260507000613 53 317 1.7 0.0 0.00 0.00 0.00 58 1011.5
20260507000116 53 300 1.7 0.0 0.00 0.00 0.00 58 1011.5
20260506235625 53 317 2.6 0.0 0.00 0.00 0.00 57 1011.5
20260506235129 53 326 2.6 0.0 0.00 0.00 0.00 57 1011.5
20260506234620 53 321 1.7 0.0 0.00 0.00 0.00 56 1011.5
20260506234118 54 346 1.7 0.0 0.00 0.00 0.00 56 1011.5
20260506233620 54 334 1.7 0.0 0.00 0.00 0.00 55 1011.5
20260506232627 54 331 2.6 0.0 0.00 0.00 0.00 56 1011.6
20260506232128 54 331 2.6 0.0 0.00 0.00 0.00 55 1011.6
20260506231629 54 323 2.6 0.0 0.00 0.00 0.00 56 1011.6
20260506231111 54 322 2.6 0.0 0.00 0.00 0.00 56 1011.6
20260506230614 54 327 1.7 0.0 0.00 0.00 0.00 56 1011.6
20260506230116 54 322 1.7 0.0 0.00 0.00 0.00 56 1011.7
20260506225125 54 313 2.6 0.0 0.00 0.00 0.00 57 1011.6
20260506224611 54 324 2.6 0.0 0.00 0.00 0.00 55 1011.6
20260506224120 54 319 3.5 0.0 0.00 0.00 0.00 55 1011.5
20260506223132 54 328 3.5 0.0 0.00 0.00 0.00 55 1011.6
20260506222611 54 323 2.6 0.0 0.00 0.00 0.00 56 1011.6
20260506222114 54 322 2.6 0.0 0.00 0.00 0.00 55 1011.6
20260506221617 54 319 2.6 0.0 0.00 0.00 0.00 56 1011.6
20260506221119 54 290 2.6 0.0 0.00 0.00 0.00 55 1011.6
20260506220623 55 355 2.6 0.0 0.00 0.00 0.00 55 1011.6
20260506220123 55 345 2.6 0.0 0.00 0.00 0.00 54 1011.6
20260506215629 55 324 2.6 0.0 0.00 0.00 0.00 53 1011.6
20260506215129 55 355 2.6 0.0 0.00 0.00 0.00 52 1011.6
20260506214617 55 337 2.6 0.0 0.00 0.00 0.00 52 1011.6
20260506214119 55 312 2.6 0.0 0.00 0.00 0.00 52 1011.7
20260506213622 55 315 2.6 0.0 0.00 0.00 0.00 52 1011.6
20260506213124 55 342 2.6 0.0 0.00 0.00 0.00 52 1011.7
20260506212633 56 336 3.5 0.0 0.00 0.00 0.00 53 1011.7
20260506212119 56 334 3.5 0.0 0.00 0.00 0.00 52 1011.7
20260506211620 56 336 4.3 0.0 0.00 0.00 0.00 52 1011.7
20260506211117 56 321 3.5 0.0 0.00 0.00 0.00 52 1011.7
20260506210621 56 331 3.5 0.0 0.00 0.00 0.00 53 1011.7
20260506205628 56 349 2.6 0.0 0.00 0.00 0.00 53 1011.7
20260506205112 56 319 2.6 0.0 0.00 0.00 0.00 53 1011.7
20260506204620 56 349 2.6 0.0 0.00 0.00 0.00 53 1011.6
20260506204123 56 344 2.6 0.0 0.00 0.00 0.00 54 1011.6
20260506203627 56 348 3.5 0.0 0.00 0.00 0.00 53 1011.6
20260506203128 56 5 3.5 0.0 0.00 0.00 0.00 53 1011.5
20260506202611 56 333 3.5 0.0 0.00 0.00 0.00 53 1011.6
20260506202111 56 342 3.5 0.0 0.00 0.00 0.00 53 1011.5
20260506201615 56 322 3.5 0.0 0.00 0.00 0.00 54 1011.5
20260506201124 56 326 3.5 0.0 0.00 0.00 0.00 54 1011.5
20260506195618 56 336 1.7 0.0 0.00 0.00 0.00 54 1011.5
20260506195122 56 323 1.7 0.0 0.00 0.00 0.00 53 1011.5
20260506194114 57 304 1.7 0.0 0.00 0.00 0.00 53 1011.5
20260506193619 57 320 1.7 0.0 0.00 0.00 0.00 52 1011.5
20260506193121 57 327 2.6 0.0 0.00 0.00 0.00 52 1011.4
20260506192626 57 333 2.6 0.0 0.00 0.00 0.00 52 1011.4
20260506192126 58 298 3.5 0.0 0.00 0.00 0.00 51 1011.4
20260506191628 58 324 4.3 0.0 0.00 0.00 0.00 50 1011.3
20260506191112 58 321 4.3 0.0 0.00 0.00 0.00 51 1011.4
20260506190616 58 299 3.5 0.0 0.00 0.00 0.00 51 1011.4
20260506190119 59 334 3.5 0.0 0.00 0.00 0.00 50 1011.4
20260506185627 59 327 3.5 0.0 0.00 0.00 0.00 49 1011.4
20260506184621 60 321 2.6 0.0 0.00 0.00 0.00 48 1011.4
20260506183626 62 321 1.7 0.0 0.00 0.00 0.00 44 1011.4
20260506183127 63 326 0.9 0.0 0.00 0.00 0.00 44 1011.4
20260506182611 64 18 0.9 0.0 0.00 0.00 0.00 41 1011.3
20260506182114 64 27 0.9 0.0 0.00 0.00 0.00 39 1011.3
20260506181615 65 80 0.9 0.0 0.00 0.00 0.00 38 1011.3
20260506181115 65 57 0.9 0.0 0.00 0.00 0.00 35 1011.3
20260506180122 67 169 0.0 0.0 0.00 0.00 0.00 35 1011.4
20260506175127 68 69 0.9 0.0 0.00 0.00 0.00 33 1011.5
20260506174630 68 348 0.9 0.0 0.00 0.00 0.00 34 1011.5
20260506174120 68 187 0.9 0.0 0.00 0.00 0.00 33 1011.5
20260506173623 67 43 0.9 0.0 0.00 0.00 0.00 34 1011.6
20260506173128 67 355 0.9 0.0 0.00 0.00 0.00 34 1011.7
20260506172112 67 101 0.9 0.0 0.00 0.00 0.00 33 1011.6
20260506171615 67 134 1.7 0.0 0.00 0.00 0.00 33 1011.7
20260506171118 67 128 1.7 0.0 0.00 0.00 0.00 32 1011.8
20260506170621 67 134 2.6 0.0 0.00 0.00 0.00 33 1011.8
20260506165612 68 144 0.9 0.0 0.00 0.00 0.00 32 1011.7
20260506165116 69 138 0.9 0.0 0.00 0.00 0.00 32 1011.7
20260506164124 69 129 0.9 0.0 0.00 0.00 0.00 32 1011.8
20260506163611 69 136 1.7 0.0 0.00 0.00 0.00 31 1011.9
20260506162130 69 121 1.7 0.0 0.00 0.00 0.00 32 1011.8
20260506161633 69 115 1.7 0.0 0.00 0.00 0.00 32 1011.9
20260506161112 69 105 1.7 0.0 0.00 0.00 0.00 32 1011.9
20260506160121 69 182 0.9 0.0 0.00 0.00 0.00 31 1012.0
20260506155625 68 21 1.7 0.0 0.00 0.00 0.00 31 1012.0
20260506155126 68 28 1.7 0.0 0.00 0.00 0.00 30 1012.2
20260506154116 67 111 2.6 0.0 0.00 0.00 0.00 33 1012.1
20260506153618 67 136 1.7 0.0 0.00 0.00 0.00 32 1012.2
20260506153126 66 198 1.7 0.0 0.00 0.00 0.00 30 1012.1
20260506152629 66 138 1.7 0.0 0.00 0.00 0.00 31 1012.3
20260506151615 67 105 3.5 0.0 0.00 0.00 0.00 33 1012.4
20260506151123 66 144 3.5 0.0 0.00 0.00 0.00 34 1012.4
20260506150627 67 148 2.6 0.0 0.00 0.00 0.00 33 1012.4
20260506150132 67 113 2.6 0.0 0.00 0.00 0.00 35 1012.5
20260506144621 65 26 0.9 0.0 0.00 0.00 0.00 36 1012.7
20260506144122 64 329 2.6 0.0 0.00 0.00 0.00 39 1012.8
20260506143624 64 126 2.6 0.0 0.00 0.00 0.00 39 1013.0
20260506142628 66 183 4.3 0.0 0.00 0.00 0.00 37 1013.0
20260506142112 66 100 5.2 0.0 0.00 0.00 0.00 38 1013.0
20260506141614 66 130 4.3 0.0 0.00 0.00 0.00 37 1013.1
20260506141115 66 208 4.3 0.0 0.00 0.00 0.00 42 1013.1
20260506140620 65 152 4.3 0.0 0.00 0.00 0.00 39 1013.2
20260506140123 66 163 2.6 0.0 0.00 0.00 0.00 40 1013.3
20260506135119 65 51 2.6 0.0 0.00 0.00 0.00 44 1013.3
20260506134622 64 213 4.3 0.0 0.00 0.00 0.00 40 1013.5
20260506134122 65 163 3.5 0.0 0.00 0.00 0.00 41 1013.6
20260506133126 65 110 3.5 0.0 0.00 0.00 0.00 40 1013.6
20260506132115 65 138 3.5 0.0 0.00 0.00 0.00 43 1013.7
20260506131619 64 155 3.5 0.0 0.00 0.00 0.00 45 1013.7
20260506131122 64 115 2.6 0.0 0.00 0.00 0.00 43 1013.8
20260506130628 65 136 2.6 0.0 0.00 0.00 0.00 40 1013.9
20260506130129 66 30 2.6 0.0 0.00 0.00 0.00 39 1013.9
20260506125117 65 263 1.7 0.0 0.00 0.00 0.00 43 1013.9
20260506124620 64 182 2.6 0.0 0.00 0.00 0.00 43 1014.1
20260506124128 64 28 2.6 0.0 0.00 0.00 0.00 42 1014.2
20260506123119 65 323 2.6 0.0 0.00 0.00 0.00 40 1014.2
20260506122124 65 200 2.6 0.0 0.00 0.00 0.00 41 1014.4
20260506121627 65 145 3.5 0.0 0.00 0.00 0.00 40 1014.4
20260506121128 65 141 3.5 0.0 0.00 0.00 0.00 40 1014.4
20260506120611 66 141 2.6 0.0 0.00 0.00 0.00 41 1014.4
20260506120118 65 43 2.6 0.0 0.00 0.00 0.00 42 1014.6
20260506115620 64 139 3.5 0.0 0.00 0.00 0.00 44 1014.6
20260506114628 65 132 2.6 0.0 0.00 0.00 0.00 43 1014.7
20260506114127 64 87 1.7 0.0 0.00 0.00 0.00 44 1014.8
20260506113612 64 223 2.6 0.0 0.00 0.00 0.00 42 1014.9
20260506113114 63 184 2.6 0.0 0.00 0.00 0.00 44 1014.9
20260506112623 63 98 2.6 0.0 0.00 0.00 0.00 47 1015.0
20260506111116 63 77 2.6 0.0 0.00 0.00 0.00 47 1015.1
20260506110619 62 124 2.6 0.0 0.00 0.00 0.00 47 1015.1
20260506110122 61 118 3.5 0.0 0.00 0.00 0.00 50 1015.2
20260506105113 61 183 3.5 0.0 0.00 0.00 0.00 46 1015.1
20260506104122 62 42 2.6 0.0 0.00 0.00 0.00 49 1015.2
20260506103130 61 315 1.7 0.0 0.00 0.00 0.00 45 1015.2
20260506102613 61 57 3.5 0.0 0.00 0.00 0.00 47 1015.3
20260506102118 61 55 2.6 0.0 0.00 0.00 0.00 48 1015.3
20260506101619 61 108 2.6 0.0 0.00 0.00 0.00 48 1015.3
20260506101128 61 100 1.7 0.0 0.00 0.00 0.00 49 1015.3
20260506100634 60 92 1.7 0.0 0.00 0.00 0.00 51 1015.3
20260506100118 60 107 3.5 0.0 0.00 0.00 0.00 52 1015.4
20260506095616 60 118 2.6 0.0 0.00 0.00 0.00 53 1015.3
20260506095125 60 125 2.6 0.0 0.00 0.00 0.00 51 1015.2
20260506094628 59 118 3.5 0.0 0.00 0.00 0.00 53 1015.1
20260506094128 59 120 2.6 0.0 0.00 0.00 0.00 54 1015.1
20260506093611 58 32 3.5 0.0 0.00 0.00 0.00 53 1015.1
20260506092619 58 129 2.6 0.0 0.00 0.00 0.00 53 1015.1
20260506092123 58 118 1.7 0.0 0.00 0.00 0.00 55 1015.1
20260506091626 58 138 2.6 0.0 0.00 0.00 0.00 54 1015.2
20260506091127 58 78 2.6 0.0 0.00 0.00 0.00 57 1015.2
20260506090630 57 147 3.5 0.0 0.00 0.00 0.00 58 1015.1
20260506090113 57 105 2.6 0.0 0.00 0.00 0.00 55 1015.1
20260506085621 57 139 1.7 0.0 0.00 0.00 0.00 59 1015.2
20260506085129 57 119 1.7 0.0 0.00 0.00 0.00 59 1015.2
20260506084632 56 71 1.7 0.0 0.00 0.00 0.00 59 1015.2
20260506084129 56 5 2.6 0.0 0.00 0.00 0.00 59 1015.2
20260506083613 56 59 2.6 0.0 0.00 0.00 0.00 61 1015.2
20260506083115 55 132 1.7 0.0 0.00 0.00 0.00 63 1015.3
20260506082618 55 79 1.7 0.0 0.00 0.00 0.00 62 1015.3
20260506082120 55 122 1.7 0.0 0.00 0.00 0.00 62 1015.2
20260506081625 55 132 1.7 0.0 0.00 0.00 0.00 62 1015.3
20260506080612 54 111 1.7 0.0 0.00 0.00 0.00 64 1015.3
20260506080115 53 51 0.9 0.0 0.00 0.00 0.00 63 1015.3
20260506072622 51 37 0.9 0.0 0.00 0.00 0.00 66 1015.4
20260506072124 51 31 1.7 0.0 0.00 0.00 0.00 66 1015.3
20260506071628 51 59 1.7 0.0 0.00 0.00 0.00 66 1015.3
20260506070613 50 89 1.7 0.0 0.00 0.00 0.00 67 1015.4
20260506070118 50 321 1.7 0.0 0.00 0.00 0.00 68 1015.4
20260506062132 46 344 3.5 0.0 0.00 0.00 0.00 72 1015.1
20260506061618 46 315 2.6 0.0 0.00 0.00 0.00 73 1015.0
20260506060621 45 321 2.6 0.0 0.00 0.00 0.00 75 1014.9
20260506060125 44 320 2.6 0.0 0.00 0.00 0.00 75 1014.9
20260506051129 45 324 2.6 0.0 0.00 0.00 0.00 72 1014.3
20260506050636 45 325 2.6 0.0 0.00 0.00 0.00 72 1014.2
20260506045123 45 307 2.6 0.0 0.00 0.00 0.00 71 1014.1
20260506044625 45 293 2.6 0.0 0.00 0.00 0.00 71 1014.0
20260506044126 45 318 2.6 0.0 0.00 0.00 0.00 71 1014.1
20260506043630 45 304 1.7 0.0 0.00 0.00 0.00 71 1014.1
20260506043118 46 319 1.7 0.0 0.00 0.00 0.00 71 1014.1
20260506042127 46 325 2.6 0.0 0.00 0.00 0.00 70 1014.0
20260506041630 46 338 1.7 0.0 0.00 0.00 0.00 70 1014.0
20260506041113 46 313 1.7 0.0 0.00 0.00 0.00 69 1014.1
20260506040616 46 316 2.6 0.0 0.00 0.00 0.00 70 1014.1
20260506040119 46 311 2.6 0.0 0.00 0.00 0.00 70 1014.1
20260506035626 46 327 2.6 0.0 0.00 0.00 0.00 70 1014.1
20260506035130 46 297 2.6 0.0 0.00 0.00 0.00 69 1014.1
20260506034117 46 315 2.6 0.0 0.00 0.00 0.00 69 1014.2
20260506033620 46 323 1.7 0.0 0.00 0.00 0.00 69 1014.2
20260506033124 46 309 0.9 0.0 0.00 0.00 0.00 70 1014.2
20260506032630 46 326 0.0 0.0 0.00 0.00 0.00 69 1014.3
20260506032113 46 326 0.0 0.0 0.00 0.00 0.00 69 1014.3
20260506031616 46 326 0.0 0.0 0.00 0.00 0.00 69 1014.3
20260506031120 46 326 0.9 0.0 0.00 0.00 0.00 68 1014.3
20260506030621 46 329 0.9 0.0 0.00 0.00 0.00 68 1014.3
20260506030125 46 301 1.7 0.0 0.00 0.00 0.00 69 1014.3
20260506024618 47 313 2.6 0.0 0.00 0.00 0.00 67 1014.3
20260506024125 47 327 2.6 0.0 0.00 0.00 0.00 67 1014.3
20260506022620 48 298 2.6 0.0 0.00 0.00 0.00 66 1014.3
20260506021626 48 300 2.6 0.0 0.00 0.00 0.00 62 1014.4
20260506020620 49 306 3.5 0.0 0.00 0.00 0.00 61 1014.4
20260506020123 50 300 3.5 0.0 0.00 0.00 0.00 61 1014.4